Flag for Belgium Weather past 2 weeks in Mons, Belgium

Now
52 °F

Overcast.


Feels Like: 49 °F
Forecast: 48 / 55 °F
Wind: 8 mph from Southwest

Location: Chievres

Current Time: Oct 24, 2014 at 12:00:17 AM

Latest Report: Oct 23, 2014 at 10:25 PM


Visibility: N/A

Pressure: 30.18 "Hg

Humidity: 77%

Dew point: 45 °F

Location of MonsLocation

Historic Weather in Mons — Graph

°F

Mons temperature yesterday

Maximum temperature yesterday: 57 °F (at 3:25 PM)
Minimum temperature yesterday: 46 °F (at 2:25 AM)
Average temperature yesterday: 52 °F

Past Weeks' High & Low Weather Summary

 TemperatureHumidityPressure
High73 °F (Oct 18, 3:25 PM)100% (Oct 11, 2:25 AM)30.24 "Hg (Oct 11, 2:25 AM)
Low43 °F (Oct 22, 7:25 AM)59% (Oct 22, 3:25 PM)29.53 "Hg (Oct 8, 11:25 PM)
Average56 °F85%29.88 "Hg
* Reported Oct 8 11:25 PM — Oct 23 10:25 PM, Mons, Weather by CustomWeather, © 2014

Note: Actual official high and low records may vary slightly from our data, if they occured in-between our weather recording intervals... More about our weather records

Advertising

Mons weather history for previous 24 hours

 ConditionsComfort  
Time TempWeatherWind HumidityBarometerVisibility
10:25 PM
Oct 23
52 °FOvercast.8 mph77%30.18 "HgN/A
9:25 PM54 °FPassing clouds.10 mph72%30.18 "HgN/A
8:25 PM54 °FOvercast.9 mph77%30.18 "HgN/A
7:25 PM55 °FPartly sunny.9 mph77%30.18 "HgN/A
6:25 PM55 °FPartly sunny.7 mph82%30.18 "HgN/A
5:25 PM57 °FOvercast.6 mph77%30.18 "HgN/A
4:25 PM57 °FOvercast.9 mph77%30.21 "HgN/A
3:25 PM57 °FOvercast.10 mph77%30.21 "HgN/A
2:25 PM55 °FPartly sunny.9 mph82%30.21 "HgN/A
1:25 PM55 °FPartly sunny.10 mph82%30.21 "HgN/A
12:25 PM54 °FOvercast.9 mph88%30.24 "HgN/A
11:25 AM54 °FScattered clouds.9 mph88%30.24 "Hg5 mi
10:25 AM50 °FMore clouds than sun.9 mph94%30.24 "Hg4 mi
9:25 AM50 °FOvercast.8 mph94%30.24 "Hg5 mi
8:47 AM50 °FPassing clouds.7 mph94%30.21 "Hg5 mi
8:25 AM50 °FPassing clouds.7 mph94%30.21 "Hg5 mi
7:53 AM50 °FPassing clouds.6 mph94%30.21 "Hg4 mi
7:25 AM50 °FPassing clouds.7 mph88%30.21 "Hg6 mi
6:25 AM48 °FMostly cloudy.6 mph94%30.21 "Hg6 mi
5:25 AM48 °FPassing clouds.7 mph94%30.21 "HgN/A
4:25 AM46 °FPartly cloudy.7 mph93%30.21 "HgN/A
3:25 AM46 °FPassing clouds.7 mph93%30.24 "HgN/A
2:25 AM46 °FPassing clouds.6 mph87%30.24 "Hg6 mi
1:25 AM48 °FPassing clouds.5 mph87%30.24 "HgN/A
12:25 AM48 °FPassing clouds.6 mph87%30.24 "HgN/A
Weather by CustomWeather, © 2014

See weather overviewHow to use our weather pages